This is the latest recevied weather packets stored in our database for station/object N4RCT. If no packets are shown the sender has not sent any weather packets the latest 10 day(s).
| Time | Temp. | Humidity | Pressure | Rain* | Wind** | Luminosity | Snow |
|---|---|---|---|---|---|---|---|
| 1777488080 | 25.56° C | 80% | 1011.5 hPa | 0 mm | - | 720 W/m² | - |
| 1777487777 | 25.56° C | 79% | 1011.3 hPa | 0 mm | - | 724 W/m² | - |
| 1777487475 | 25.56° C | 81% | 1011.4 hPa | 0 mm | - | 717 W/m² | - |
| 1777487172 | 25.56° C | 81% | 1011.4 hPa | 0 mm | - | 483 W/m² | - |
| 1777486868 | 25° C | 82% | 1011.5 hPa | 0 mm | - | 796 W/m² | - |
| 1777486565 | 25.56° C | 80% | 1011.7 hPa | 0 mm | - | 140 W/m² | - |
| 1777486263 | 25° C | 83% | 1011.8 hPa | 0 mm | - | 809 W/m² | - |
| 1777485960 | 24.44° C | 82% | 1011.8 hPa | 0 mm | - | 219 W/m² | - |
| 1777485656 | 25° C | 81% | 1011.9 hPa | 0 mm | - | 185 W/m² | - |
| 1777485351 | 25° C | 82% | 1011.8 hPa | 0 mm | - | 225 W/m² | - |
| 1777485048 | 25° C | 83% | 1011.8 hPa | 0 mm | - | 229 W/m² | - |
| 1777484745 | 25° C | 81% | 1011.6 hPa | 0 mm | - | 178 W/m² | - |
| 1777484441 | 24.44° C | 81% | 1011.8 hPa | 0 mm | - | 769 W/m² | - |
| 1777484138 | 23.89° C | 84% | 1011.8 hPa | 0 mm | - | 859 W/m² | - |
| 1777483834 | 23.89° C | 84% | 1012 hPa | 0 mm | - | 240 W/m² | - |
| 1777483531 | 24.44° C | 83% | 1012.2 hPa | 0 mm | - | 216 W/m² | - |
| 1777483226 | 25° C | 81% | 1012.2 hPa | 0 mm | - | 210 W/m² | - |
| 1777482922 | 24.44° C | 83% | 1012.2 hPa | 0 mm | - | 492 W/m² | - |
| 1777482618 | 24.44° C | 83% | 1012.3 hPa | 0 mm | - | 783 W/m² | - |
| 1777482316 | 24.44° C | 83% | 1012.2 hPa | 0 mm | - | 189 W/m² | - |
| 1777482013 | 25° C | 82% | 1012.1 hPa | 0 mm | - | 197 W/m² | - |
| 1777481710 | 25° C | 80% | 1012.1 hPa | 0 mm | - | 359 W/m² | - |
| 1777481407 | 25° C | 81% | 1012.2 hPa | 0 mm | - | 851 W/m² | - |
| 1777481103 | 24.44° C | 80% | 1012.1 hPa | 0 mm | - | 273 W/m² | - |
| 1777480800 | 24.44° C | 79% | 1012.3 hPa | 0 mm | - | 246 W/m² | - |
* Rain latest hour (hover to see other rain measurements)
** Current wind speed in m/s (hover to see current wind gust speed)